Location: Coffee Creek Observatory
(38.8077°N, 94.7179°W)
Time: 00:19:07
(UTC-05:00)

Daily predictions for brighter satellites

Satellite Brightness Start Highest point End
(mag) Time Altitude Azimuth Time Altitude Azimuth Time Altitude Azimuth
Cosmos 2219 Rocket 4.4 03:24:58 10° N 03:29:13 21° NE 03:33:26 10° ESE
CZ-2D R/B 4.5 03:27:44 10° NNE 03:29:18 19° NE 03:29:18 19° NE
Lacrosse 5 rocket 4.3 03:57:30 15° NNE 03:57:30 15° NNE 03:58:19 10° NE
Resurs 1-4 Rocket 3.9 03:56:45 10° NNE 03:59:05 27° NNE 03:59:05 27° NNE
ATLAS 2AS CENTAUR R/B 3.9 04:04:31 36° NNW 04:04:31 36° NNW 04:10:47 10° NNE
Cosmos 2333 Rocket 3.8 04:01:02 10° N 04:06:06 31° ENE 04:11:05 10° ESE
SL-16 R/B 4.2 04:34:26 20° NNW 04:34:26 20° NNW 04:36:20 10° NNW
CZ-4B R/B 4.4 04:26:58 10° NNE 04:32:00 38° E 04:34:21 26° SE
Cosmos 2237 Rocket 3.3 04:28:18 10° N 04:33:38 41° ENE 04:38:55 10° SE
NOSS 3-2 (A) 4.4 04:26:18 10° NNW 04:33:46 63° NE 04:41:45 10° SE
ATLAS 5 CENTAUR R/B 3.3 04:37:28 10° NNW 04:43:16 46° NE 04:49:28 10° SE
Cosmos 2219 4.4 04:47:13 28° NNW 04:47:13 28° NNW 04:50:33 10° N
RESURS DK-1 3.8 04:46:26 35° E 04:46:26 35° E 04:50:00 10° NE
Cosmos 1980 4.2 04:41:35 10° NNW 04:47:12 59° ENE 04:52:47 10° SE
Gbstr 26 Del rocket 4.3 04:48:23 41° NW 04:51:25 89° SW 04:59:34 10° SE
SL-16 R/B 4.2 04:47:32 10° N 04:52:18 27° ENE 04:57:03 10° ESE
USA 215 4.3 04:49:07 10° SSE 04:52:18 28° S 04:52:18 28° S
Cosmos 1934 Rocket 4.1 04:49:24 10° NNW 04:54:45 56° WNW 04:54:45 56° WNW
Cosmos 1605 Rocket 3.8 04:50:33 10° N 04:56:42 86° W 05:02:56 10° S
Cosmos 1346 Rocket 4.5 04:56:50 21° SE 04:58:37 31° E 05:02:10 10° NNE
NOSS 0 Rocket 3.8 04:52:32 10° NNW 04:58:48 89° NE 05:05:03 10° SSE
CZ-4C R/B 3.7 05:03:02 32° SSW 05:03:02 32° SSW 05:07:32 10° S
Cosmos 1743 4.4 04:56:40 10° N 04:58:35 27° N 04:58:35 27° N
ADEOS II 3.6 04:56:23 10° NNE 05:01:08 34° E 05:05:52 10° SSE
Cosmos 1777 Rocket 4.4 05:02:13 49° NW 05:02:13 49° NW 05:06:36 10° N
Cosmos 2227 Rocket 2.1 05:03:27 60° SSW 05:04:32 87° WNW 05:10:15 10° NNE
Lacrosse 5 1.7 05:08:53 74° WSW 05:09:17 81° NW 05:14:23 10° NE
NOSS 3-2 (C) 4.0 05:03:31 10° NNW 05:11:07 83° ENE 05:19:17 10° SE
CZ-2D R/B 3.7 05:08:18 10° NNW 05:10:38 20° NW 05:10:38 20° NW
Cosmos 2219 Rocket 2.2 05:07:59 10° NNW 05:13:33 57° WSW 05:19:05 10° S
Cosmos 2297 Rocket 2.2 05:11:41 36° SSW 05:14:06 81° ESE 05:19:47 10° NNE
Cosmos 1025 Rocket 2.9 05:13:42 62° S 05:14:25 86° E 05:18:46 10° N
Okean O Rocket 1.7 05:12:08 10° N 05:16:00 56° NW 05:16:00 56° NW
ADEOS Rocket 3.4 05:11:05 10° NNE 05:18:18 75° ESE 05:24:43 10° S
Cosmos 2112 Rocket 4.0 05:15:53 10° NNW 05:21:13 83° ENE 05:26:28 10° SSE
CZ-2C R/B 3.6 05:21:18 51° SSW 05:22:08 62° WSW 05:26:43 10° NNW
Tiangong 1 1.9 05:25:06 46° NE 05:25:06 46° NE 05:27:28 10° ENE
CZ-4B R/B 3.0 05:21:29 10° N 05:25:49 65° WNW 05:26:45 51° SW
Cosmos 1680 Rocket 3.4 05:20:54 10° NNW 05:26:11 76° WSW 05:31:24 10° S
Cosmos 1606 Rocket 3.5 05:22:29 10° N 05:26:53 81° E 05:31:13 10° S
Cosmos 2061 Rocket 4.4 05:21:05 10° N 05:27:21 64° E 05:33:40 10° SSE
Cosmos 292 Rocket 4.4 05:23:50 10° N 05:28:39 58° ENE 05:33:25 10° SSE
CZ-4B DEB 4.1 05:23:15 10° N 05:28:43 72° WNW 05:32:17 22° SSW
Cosmos 2344 4.2 05:26:43 31° W 05:29:43 41° NW 05:38:03 10° NNE
Cosmos 1802 Rocket 4.5 05:26:33 10° N 05:32:40 62° E 05:38:43 10° SSE
NOSS 3-4 (A) 3.8 05:31:05 35° WSW 05:33:25 51° NW 05:39:47 10° NNE
NOSS 3-4 (C) 3.8 05:31:09 35° WSW 05:33:31 51° NW 05:39:54 10° NNE
Cosmos 2100 Rocket 4.1 05:27:31 10° N 05:33:47 80° E 05:40:05 10° S
Lacrosse 5 rocket 3.7 05:33:14 13° NW 05:33:58 14° NNW 05:36:16 10° N
Delta 2 Rocket 3.2 05:34:00 50° SSW 05:34:19 52° S 05:37:46 10° ESE
PAYLOAD B 4.3 05:32:13 10° N 05:37:33 52° WNW 05:40:28 26° SW
Cosmos 1726 Rocket 3.4 05:33:55 10° N 05:38:20 89° W 05:42:40 10° S
Okean 2 3.3 05:35:48 13° S 05:39:30 89° W 05:43:40 10° N
Resurs 1-4 Rocket 4.0 05:38:41 10° NNW 05:40:09 13° NW 05:40:09 13° NW
Meteor 1-31 Rocket 4.2 05:37:55 10° NNE 05:41:35 39° E 05:45:16 10° SSE
Cosmos 2298 Rocket 4.1 05:37:25 10° SSW 05:42:42 78° ESE 05:48:01 10° NNE
Cosmos 2082 4.0 05:41:46 31° WSW 05:43:55 44° WNW 05:49:17 10° N
BREEZE-M DEB (TANK) 4.4 05:28:51 10° WNW 05:45:07 56° NNE 05:49:20 10° E
Feng Yun 1-1 Rocket 4.4 05:41:21 10° NNE 05:47:01 79° ESE 05:52:48 10° S
Cosmos 1892 Rocket 3.5 05:42:55 11° SSW 05:47:08 68° W 05:51:37 10° N
USA 129 4.3 05:45:33 10° SE 05:47:13 22° ENE 05:48:48 10° NNE
Aureole 2 Rocket 4.1 05:45:42 10° N 05:48:56 34° ENE 05:51:53 10° SE
Cosmos 2333 Rocket 2.7 05:45:12 10° NW 05:50:21 36° WSW 05:55:26 10° S
Thor Agena Rocket 3.6 05:45:24 10° S 05:50:37 61° WSW 05:55:53 10° NNW
PSLV R/B 3.6 05:53:02 10° N 05:57:16 53° WNW 06:01:26 10° SSW
Cosmos 2150 Rocket 3.9 05:52:27 10° SSW 05:57:37 88° WNW 06:02:47 10° NNE
BREEZE-M DEB (TANK) 3.5 06:02:21 10° NNW 06:04:48 31° NE 06:07:58 10° ESE
Cosmos 2098 Rocket 3.1 06:03:14 10° N 06:07:05 84° E 06:11:59 10° S
Cosmos 990 Rocket 4.4 06:05:06 10° S 06:10:18 68° ESE 06:15:32 10° NNE
Cosmos 1666 3.3 06:07:11 10° NNW 06:10:43 34° W 06:14:12 10° SSW
Cosmos 2016 Rocket 4.0 06:04:28 10° N 06:10:50 79° W 06:17:06 10° S
Ariane Rocket 4.3 06:06:42 10° NNE 06:11:35 44° E 06:16:25 10° S
CZ-4B R/B 4.1 06:07:54 10° N 06:12:22 27° WNW 06:16:14 13° WSW
Cosmos 2228 3.0 06:08:57 10° NNW 06:13:20 68° W 06:17:39 10° S
Meteor 2-4 Rocket 4.3 06:10:30 10° SW 06:15:49 37° WNW 06:21:16 10° N
SeaSat 1 4.5 06:11:34 10° ESE 06:15:49 30° NE 06:20:05 10° N
DELTA 2 R/B (1) 3.6 06:11:43 16° WSW 06:16:12 78° SSE 06:21:47 10° E
Cosmos 2173 Rocket 4.1 06:10:49 10° NNW 06:16:39 50° W 06:22:31 10° SSW
Cosmos 2237 Rocket 3.1 06:12:52 10° NW 06:17:24 25° WSW 06:21:55 10° SSW
Okean-O 3.1 06:13:45 10° N 06:17:55 41° WNW 06:22:03 10° SW
SL-08 R/B 4.5 06:11:42 10° N 06:17:57 83° W 06:24:17 10° S
OTV 4 1.6 06:18:30 18° WSW 06:19:41 24° SSW 06:21:58 10° SE
RESURS DK-1 3.9 06:22:25 14° W 06:24:23 19° NW 06:27:23 10° N
Cosmos 1340 4.3 06:21:41 10° SSE 06:25:13 39° E 06:28:47 10° NNE
Cosmos 2123 Rocket 3.9 06:19:34 10° S 06:25:44 80° W 06:31:56 10° N
Cosmos 1459 Rocket 4.4 06:20:11 10° NNW 06:26:05 41° W 06:31:55 10° SSW
Cosmos 2058 Rocket 3.7 06:22:39 10° NNW 06:26:32 32° W 06:30:26 10° SSW
ATLAS 5 CENTAUR R/B 3.1 06:22:29 10° NW 06:27:54 33° WSW 06:33:35 10° S
Radarsat Rocket 4.3 06:21:48 10° NNE 06:28:38 82° ESE 06:34:43 10° SSW
Cosmos 1898 Rocket 4.0 06:26:33 10° SW 06:31:33 40° WNW 06:36:32 10° N
Cosmos 1346 Rocket 4.4 06:32:36 10° WSW 06:35:06 16° WNW 06:37:39 10° NNW
MOS 1 Rocket 3.7 06:31:08 10° N 06:35:43 47° WNW 06:40:33 10° SSW
SL-16 R/B 2.6 06:31:14 10° NW 06:36:33 42° WSW 06:41:50 10° S
COBE Rocket 4.1 06:33:06 10° N 06:37:41 45° WNW 06:42:07 10° SW
COSMO-SKYMED 1 2.6 06:34:45 10° SSE 06:39:05 89° ENE 06:43:27 10° NNW
ADEOS II 3.0 06:36:17 10° N 06:40:44 28° WNW 06:45:09 10° SW
Cosmos 1066 Rocket 4.4 06:38:06 10° S 06:43:41 84° E 06:49:28 10° N
Cosmos 1825 Rocket 4.4 06:42:02 10° S 06:46:21 57° E 06:50:40 10° NNE
Cosmos 1937 Rocket 4.0 06:42:11 10° SW 06:47:05 40° WNW 06:52:03 10° N
NOAA 6 4.2 06:42:07 10° N 06:47:11 55° WNW 06:52:13 10° SSW
